www.pogodaiklimat.ru

Погода и климат >> Архив погоды >> Россия >> Ханты-Мансийский АО >> Казым-Мыс


ПОГОДА в Казым-Мысе

  • Прогноз погоды в Казым-Мысе
  • Монитор погоды в Казым-Мысе

АРХИВ ПОГОДЫ в Казым-Мысе

Время (UTC), дата Ветер
(напр.,м/с)
 
Видим.   Явления Облачность Т
(С)
Тd
(С)
f
(%)
Тe
(С)
Тes
(С)
Комфортность P
(гПа)
Po
(гПа)
Тmin
(С)
Tmax
(С)
R
(мм)
R24
(мм)
S
(см)
15 18.08 СЗ 1 н/о н/о +15.6 +8.1 61 +16 +16 1024.8 1021.3 +19.6
18 18.08 С 2 н/о н/о +12.1 +8.4 78 +11 +11 1026.2 1022.7
21 18.08 СЗ 1 н/о н/о +5.9 +4.5 91 +5 +5 1027.6 1024.0
00 19.08 З 1 н/о н/о +7.5 +6.4 93 +6 +6 1028.9 1025.3
03 19.08 СВ 1 н/о н/о +13.0 +7.4 69 +13 +16 1028.8 1025.3 +5.6
06 19.08 СЗ 2 н/о н/о +16.9 +7.0 52 +17 +20 1028.8 1025.3
09 19.08 СЗ 3 н/о н/о +18.9 +5.0 40 +19 +24 1027.5 1024.0
12 19.08 СЗ 2 н/о н/о +19.5 +6.2 42 +21 +23 комфорт 1027.5 1024.0
15 19.08 С 2 н/о н/о +16.1 +7.6 57 +16 +16 1027.5 1024.0 +19.8
18 19.08 СВ 2 н/о н/о +10.8 +7.7 81 +10 +10 1027.6 1024.0
21 19.08 СВ 1 н/о н/о +6.3 +4.9 91 +5 +5 1027.6 1024.0
00 20.08 З 1 н/о н/о +3.6 +2.6 93 +2 +2 1029.0 1025.3
03 20.08 СЗ 1 н/о н/о +10.4 +8.0 85 +10 +10 1027.6 1024.0 +3.4
06 20.08 СВ 3 20 км 2 балла +16.9 +9.1 60 +17 +22 1026.2 1022.7
09 20.08 СВ 3 н/о н/о +19.4 +5.8 41 +20 +24 1026.2 1022.7
12 20.08 С 3 н/о н/о +19.9 +5.9 40 +21 +23 комфорт 1026.2 1022.7
15 20.08 СВ 1 н/о н/о +16.0 +9.2 64 +17 +17 1024.8 1021.3 +20.1
18 20.08 С 1 н/о н/о +9.9 +8.2 89 +9 +9 1024.9 1021.3
21 20.08 СВ 1 н/о н/о +9.8 +7.9 88 +9 +9 1024.9 1021.3
00 21.08 С 1 20 км 4 балла +8.6 +7.1 90 +8 +8 1024.9 1021.3
03 21.08 С 1 н/о н/о +12.2 +9.2 82 +12 +14 1024.8 1021.3 +8.5
06 21.08 СВ 2 н/о н/о +18.4 +11.0 62 +19 +27 1024.8 1021.3
09 21.08 СВ 2 н/о н/о +21.1 +8.7 45 +22 +30 комфорт 1024.7 1021.3
12 21.08 СВ 1 н/о н/о +22.8 +9.2 42 +24 +27 комфорт 1023.4 1020.0
15 21.08 штиль 0 н/о н/о +17.3 +14.0 81 +17 +17 1022.2 1018.7 +22.8
18 21.08 штиль 0 н/о н/о +11.6 +10.3 92 +11 +11 1022.2 1018.7
21 21.08 штиль 0 н/о н/о +8.9 +7.7 92 +8 +8 1020.9 1017.3
00 22.08 штиль 0 н/о н/о +7.6 +6.5 93 +7 +7 1019.6 1016.0
03 22.08 ЮЗ 1 н/о н/о +13.7 +11.2 85 +14 +17 1019.5 1016.0 +7.5
06 22.08 З 2 н/о н/о +21.4 +11.7 54 +23 +30 комфорт 1018.1 1014.7
09 22.08 З 3 н/о н/о +23.7 +9.7 41 +25 +27 комфорт 1015.4 1012.0
12 22.08 З 3 н/о н/о +20.7 +2.0 29 +21 +21 комфорт 1016.7 1013.3
15 22.08 З 1 н/о н/о +16.7 +12.6 77 +18 +18 1015.5 1012.0 +24.8
18 22.08 З 1 н/о н/о +12.3 +11.0 92 +12 +12 1015.5 1012.0
21 22.08 штиль 0 н/о н/о +8.4 +7.3 93 +7 +7 1015.6 1012.0
00 23.08 штиль 0 н/о н/о +7.9 +6.8 93 +7 +7 1015.6 1012.0
03 23.08 штиль 0 н/о н/о +11.0 +10.1 94 +10 +10 1014.2 1010.7 +7.4 0.0
06 23.08 В 1 20 км 10 баллов +15.6 +13.1 85 +16 +16 1012.8 1009.3
09 23.08 ЮВ 2 н/о н/о +18.5 +10.1 58 +19 +19 1010.1 1006.7
12 23.08 ЮВ 2 н/о н/о +16.4 +14.2 87 +16 +16 1007.4 1004.0
15 23.08 ЮВ 3 н/о н/о +15.0 +13.5 91 +14 +14 1003.4 1000.0 +18.7 3
18 23.08 ЮЗ 3-10
{10}
н/о н/о +15.2 +13.7 91 +14 +14 1000.7 997.3
21 23.08 З 3-10
{11}
н/о н/о +13.2 +11.3 88 +12 +12 999.4 996.0
00 24.08 З 1
{12}
н/о н/о +10.9 +9.5 91 +11 +11 999.5 996.0
03 24.08 З 2 н/о н/о +11.9 +10.6 92 +11 +11 999.5 996.0 +10.2 2
06 24.08 С 4
{10}
н/о н/о +12.3 +11.0 92 +10 +10 1000.8 997.3
09 24.08 С 5
{10}
н/о н/о +11.5 +9.7 89 +9 +9 1004.8 1001.3
12 24.08 СЗ 4 н/о н/о +12.0 +9.6 85 +10 +10 1007.5 1004.0
15 24.08 СЗ 3 20 км 10 баллов +11.5 +8.4 81 +10 +10 1008.8 1005.3 +12.6 17
18 24.08 СЗ 2 20 км 9 баллов +10.5 +8.3 86 +9 +9 1010.2 1006.7
21 24.08 З 1 20 км 9 баллов +7.0 +5.1 88 +6 +6 1011.6 1008.0
00 25.08 СЗ 2 20 км 2 балла +4.5 +3.2 91 +2 +2 1011.6 1008.0
03 25.08 С 2 20 км 9 баллов +6.1 +3.6 84 +4 +4 1012.9 1009.3 +4.5
06 25.08 СЗ 3 20 км 6 баллов +9.9 +3.8 66 +8 +10 1014.2 1010.7
09 25.08 СЗ 3 20 км 7 баллов +12.6 +4.3 57 +11 +13 1014.2 1010.7
12 25.08 С 2 20 км 7 баллов +11.8 +4.3 60 +11 +12 1014.2 1010.7

 

Местоположение метеостанции Казым-Мыс (Ханты-Мансийский АО, Россия): широта 63.72 долгота 67.23 высота над уровнем моря 29 м.

В архиве по умолчанию представлена погода в Казым-Мысе за последнюю неделю. Архивные данные за месяц целиком и за предыдущие месяцы, начиная с января 2011 года, Вы можете получить, выбрав интересующий диапазон дат из раскрывающегося списка и нажав кнопку "Ввод!".


*Определитесь, кто Вы:
робот инопланетянин человек

Внимание! Время в таблицах - всемирное. Для получения местного времени необходимо прибавить поправку, которая равна 5 ч.

Смотрите также архив погоды в соседних городах и на ближайших метеорологических станциях:

Погода в Березово (Ханты-Мансийский АО, Россия) (110 км)
Погода в Юильске (Ханты-Мансийский АО, Россия) (117 км)
Погода в Игриме (Ханты-Мансийский АО, Россия) (150 км)
Погода в Октябрьском (Ханты-Мансийский АО, Россия) (153 км)
Погода в Лонг-Югане (Ямало-Ненецкий АО, Россия) (214 км)
Погода в Мужах (Ямало-Ненецкий АО, Россия) (220 км)
Погода в Вонъегане (Ханты-Мансийский АО, Россия) (230 км)
Погода в Питляре (Ямало-Ненецкий АО, Россия) (243 км)
Погода в Талинке (Ханты-Мансийский АО, Россия) (244 км)
Погода в Нижнесортымском (Ханты-Мансийский АО, Россия) (247 км)

Пояснения к столбцам:

Ветер - указаны скорость ветра в м/с - средняя за 10 мин, порывы в срок и между сроками (в фигурных скобках) и направление, откуда дует ветер: С - северный, СВ - северо-восточный, В - восточный, ЮВ - юго-восточный, Ю - южный, ЮЗ - юго-западный, З - западный, СЗ - северо-западный.
Видимость - горизонтальная дальность видимости в метрах или километрах. При видимости от 1 до 10 км при отсутствии осадков обычно наблюдается дымка, при ухудшении видимости до 1 км и менее - туман. В сухую погоду видимость может ухудшаться дымом, пылью или мглою.
Явления - указаны атмосферные явления, наблюдавшиеся в срок или в последний час перед сроком; фигурными скобками обозначены явления, наблюдавшиеся между сроками (за 1-3 часа до срока); квадратными скобками обозначены град или гололедные отложения с указанием их диаметра в мм.
Облачность - указаны через наклонную черту общая и нижняя облачность в баллах и высота нижней границы облаков в метрах; квадратными скобками обозначены формы облаков: Ci - перистые, Cs - перисто-слоистые, Cc - перисто-кучевые, Ac - высококучевые, As - высокослоистые, Sc - слоисто-кучевые, Ns - слоисто-дождевые, Cu - кучевые, Cb - кучево-дождевые. Подробнее классификацию облаков см. в Атласе облаков (PDF).
T - Температура воздуха - температура, измеренная на высоте 2 м над землей.
Td - Температура точки росы - температура, при понижении до которой содержащийся в воздухе водяной пар достигнет насыщения.
f - Относительная влажность воздуха - влажноcть воздуха, измеренная на высоте 2 м над землей.
Te - Эффективная температура - температура, которую ощущает одетый по сезону человек в тени. Характеристика душности погоды. При расчете учитывается влияние влажности воздуха и скорости ветра на теплоощущения человека.
Tes - Эффективная температура на солнце - температура, которую ощущает человек, с поправкой на солнечный нагрев. Характеристика знойности погоды. Зависит от высоты солнца над горизонтом, облачности и скорости ветра. Ночью, в пасмурную погоду, а также при ветре 12 м/с и более поправка равна нулю.
P - Атмосферное давление - приведенное к уровню моря атмосферное давление.
Po - Атмосферное давление - измеренное на уровне метеостанции атмосферное давление.
Tmin - Минимальная температура - минимум температуры воздуха на высоте 2 м над землей.
Tmax - Максимальная температура - максимум температуры воздуха на высоте 2 м над землей.
R - Количество осадков - Количество выпавших осадков за период времени, мм. При наведении курсора мыши на число - период времени, за который выпало указанное количество осадков.
R24 - Количество осадков - Количество выпавших осадков за 24 часа, мм.
S - Снежный покров - Высота снежного покрова, см. При наведении курсора мыши на число - состояние снежного покрова и степень покрытия местности в баллах.